格洛纳斯M-760 COSMOS 2545 [GLONASS-M]

导读 | 豆包AI

COSMOS 2545是俄罗斯航天集团(归属独联体CIS)发射的格洛纳斯(GLONASS)系列导航卫星,于2020年3月16日发射入轨。作为GLONASS全球卫星导航系统的组网卫星,它承担着补充组网、提升系统覆盖精度的任务,配备铯原子钟等设备,可为民用和军用提供高精度定位导航服务,助力维持GLONASS星座稳定运行。

基本信息
目录编号:
45358
目录名称:
COSMOS 2545 (GLONASS)
国际标识:
2020-018A
轨道中心:
EARTH
卫星名称:
格洛纳斯M-760
卫星全名:
格洛纳斯M-760 COSMOS 2545 [GLONASS-M]
卫星状态:
在轨 (已飞行2189 天)
发射日期:
2020-03-16 UTC
国别 :
俄罗斯(独联体) (CIS)
星等 :
--
轨道信息
数据来源 国际轨道数据 AOE轨道数据
星历时间 2026-03-13T19:53:34+0800
19小时前
查看轨道信息
2026-03-11T08:00:00+0800
3天前
查看轨道信息
半长轴 25507.969km 25507.985km
偏心率 0.0008032 0.0007716
轨道倾角 64.412° 64.413°
近地点辐角 249.617° 249.029°
升交点赤经 315.784° 315.872°
平近点角 110.358° 356.454°
近地点 19109.343km 19110.166km
远地点 19150.321km 19149.53km
周期 675.731分钟 675.731分钟
每日圈数 2.131027 2.131025
详细信息
平衡模式:
三轴稳定
覆盖范围:
全球
运营商:
列舍特涅夫卫星信息系统
运营商所在国:
俄罗斯
制造商(研发单位):
列舍特涅夫卫星信息系统
制造商所在国:
俄罗斯
使用方式:
暂无
卫星简介
格洛纳斯(GLONASS )是苏联/俄罗斯研制卫星导航系统。标准配置为24颗卫星,其中18颗卫星就能保证该系统为俄罗斯境内用户提供全部服务。该卫星仍在工作。
2D轨道图
3D轨道图
轨道高度分析图
轨道倾角分析图
轨道综合分析图
查看轨道综合分析图